Volver al catálogo

FENGYUN 1C DEB

ActivoSSO
NORAD 30124·DEBRIS·🇨🇳 China

Lanzado May 10, 1999 desde Taiyuan Satellite Launch Center

Loading…

Próximos Pases (próximas 24 horas)

TLE

ActualizadoSource: Space-Track

Época: Sep 14, 2026, 22:51 UTC

1 30124U 99025SD  26257.95227150  .00000963  00000-0  47214-3 0  9997
2 30124  99.1070 322.7639 0141370  46.5621 133.1423 14.15128933  8181

Sigue FENGYUN 1C DEB en tiempo real con AllMySat

Download on the App Store